[Iaude] MPEC U112: 2016 UZ41 [a=2.24,e=0.58,i=12.2,H=20.4]

mpec at si.edu mpec at si.edu
Sun Oct 30 12:40:08 EDT 2016


M.P.E.C. 2016-U112                               Issued 2016 Oct. 30, 16:35 UT
 
     The Minor Planet Electronic Circulars contain information on unusual
         minor planets and routine data on comets.  They are published
    on behalf of Division F of the International Astronomical Union by the
          Minor Planet Center, Smithsonian Astrophysical Observatory,
                          Cambridge, MA 02138, U.S.A.

             Prepared using the Tamkin Foundation Computer Network

                              MPC at CFA.HARVARD.EDU
            URL http://www.minorplanetcenter.net/    ISSN 1523-6714


                                   2016 UZ41
 
Observations:
     K16U41Z* C2016 10 27.45844 05 12 57.76 +14 58 01.7          20.6 VqEU112G96
     K16U41Z  C2016 10 27.46280 05 12 57.20 +14 58 06.6          20.7 VqEU112G96
     K16U41Z  C2016 10 27.47154 05 12 56.06 +14 58 18.7          20.5 VqEU112G96
     K16U41Z  C2016 10 27.49907 05 12 52.45 +14 58 52.8          20.6 VqEU112G96
     K16U41Z  C2016 10 27.50369 05 12 51.86 +14 58 58.7          20.5 VqEU112G96
     K16U41Z  C2016 10 27.50805 05 12 51.27 +14 59 04.3          20.6 VqEU112G96
     K16U41Z  C2016 10 27.51186 05 12 50.74 +14 59 09.1          20.9 VqEU112G96
     K16U41Z  C2016 10 28.37699 05 11 03.28 +15 17 33.3          20.3 RoEU112926
     K16U41Z  C2016 10 28.38714 05 11 01.93 +15 17 46.2          20.5 RoEU112926
     K16U41Z  C2016 10 28.39774 05 11 00.51 +15 18 00.0          20.4 RoEU112926
     K16U41Z KC2016 10 28.40526805 10 59.08 +15 18 06.8          20.2 VuEU112H21
     K16U41Z KC2016 10 28.40808105 10 58.73 +15 18 10.1          20.0 VuEU112H21
     K16U41Z KC2016 10 28.41099005 10 58.33 +15 18 14.1          20.0 VuEU112H21
     K16U41Z  C2016 10 29.41318 05 08 50.24 +15 39 19.5          20.7 RoEU112926
     K16U41Z  C2016 10 29.42174 05 08 49.08 +15 39 30.3          20.8 RoEU112926
     K16U41Z  C2016 10 29.43111 05 08 47.81 +15 39 42.1          21.2 RoEU112926
     K16U41Z  C2016 10 29.51562 05 08 36.27 +15 41 27.2                qEU112G96
     K16U41Z  C2016 10 29.51958 05 08 35.76 +15 41 31.3          20.3 VqEU112G96
     K16U41Z  C2016 10 30.25152 05 07 01.49 +15 56 40.5                qEU112I52
     K16U41Z  C2016 10 30.25537 05 07 01.02 +15 56 45.1          20.9 VqEU112I52
     K16U41Z  C2016 10 30.35196 05 06 47.79 +15 58 47.8          20.5 VqEU112G96
     K16U41Z  C2016 10 30.35639 05 06 47.14 +15 58 52.4          21.3 VqEU112G96
     K16U41Z  C2016 10 30.36136 05 06 46.48 +15 58 58.6          20.4 VqEU112G96
     K16U41Z  C2016 10 30.36584 05 06 45.82 +15 59 04.7          20.9 VqEU112G96
 
Observer details:
926 Tenagra II Observatory.  Observers M. Schwartz, P. R. Holvorcem.  Measurer
    M. Schwartz.  0.81-m f/7 Ritchey-Chretien + CCD.
G96 Mt. Lemmon Survey.  Observers G. J. Leonard, D. C. Fuls.  Measurers
    E. J. Christensen, D. C. Fuls, A. R. Gibbs, A. D. Grauer, J. A. Johnson,
    R. A. Kowalski, S. M. Larson, G. J. Leonard, R. G. Matheny, R. L. Seaman,
    F. C. Shelly.  1.5-m reflector + 10K CCD.
H21 Astronomical Research Observatory, Westfield.  Observer R. Holmes.
    Measurers S. Foglia, L. Buzzi, T. Linder, R. Holmes.  0.76-m f/3.0
    astrograph + CCD.
I52 Steward Observatory, Mt. Lemmon Station.  Observer J. A. Johnson.
    Measurers E. J. Christensen, D. C. Fuls, A. R. Gibbs, A. D. Grauer,
    J. A. Johnson, R. A. Kowalski, S. M. Larson, G. J. Leonard, R. G. Matheny,
    R. L. Seaman, F. C. Shelly.  1.0-m reflector + CCD.
 
Orbital elements:
2016 UZ41                                                Earth MOID = 0.1507 AU
Epoch 2016 July 31.0 TT = JDT 2457600.5                 MPC
M 356.80208              (2000.0)            P               Q
n   0.29308978     Peri.  266.92305     +0.82230717     +0.53880902
a   2.2445826      Node    60.40321     -0.40156623     +0.77733711
e   0.5788588      Incl.   12.15057     -0.40318169     +0.32470271
P   3.36           H   20.4           G   0.15           U   7
Residuals in seconds of arc
161027 G96  0.1+  0.3+    161028 926  0.0   0.1-    161029 G96  0.1-  0.5+
161027 G96  0.2+  0.4-    161028 926  0.0   0.2+    161029 G96  0.2+  0.3-
161027 G96  0.2+  0.6+    161028 H21  0.2-  0.1+    161030 I52  0.8-  0.6-
161027 G96  0.1-  0.4-    161028 H21  0.2+  0.2-    161030 I52  0.0   0.8-
161027 G96  0.1+  0.3-    161028 H21  0.0   0.2+    161030 G96  0.4+  0.7+
161027 G96  0.2-  0.3-    161029 926  0.1-  0.1-    161030 G96  0.1-  0.2-
161027 G96  0.7-  0.3-    161029 926  0.1+  0.1-    161030 G96  0.4+  0.2-
161028 926  0.0   0.1-    161029 926  0.2+  0.0     161030 G96  0.2-  0.4+

Ephemeris:
2016 UZ41                a,e,i = 2.24, 0.58, 12                  q = 0.9453
Date    TT    R. A. (2000) Decl.     Delta      r     Elong.  Phase     V
2016 09 30    05 46 35.8 +04 18 12   0.4154  1.1488   100.0    59.2    20.9
...
2016 10 15    05 34 05.3 +10 17 56   0.4358  1.2596   117.6    44.6    20.8
...
2016 10 23    05 21 37.1 +13 20 40   0.4491  1.3224   128.6    36.0    20.7
...
2016 10 29    05 09 43.6 +15 30 45   0.4628  1.3704   137.4    29.4    20.7
2016 10 30    05 07 33.8 +15 51 36   0.4655  1.3785   139.0    28.2    20.7
2016 10 31    05 05 21.3 +16 12 09   0.4684  1.3865   140.5    27.1    20.7
...
2016 11 06    04 51 21.3 +18 08 31   0.4890  1.4352   149.8    20.3    20.6
...
2016 11 14    04 31 48.3 +20 21 01   0.5273  1.5003   162.4    11.5    20.6
...
2016 11 29    03 58 52.8 +23 11 20   0.6374  1.6222   174.7     3.2    20.8

A. U. Tomatic                (C) Copyright 2016 MPC           M.P.E.C. 2016-U112




More information about the Iaude mailing list